Location: Ravensburg
(48.5621°N, 13.4088°E)
Time: 03:57:59
(UTC+01:00)

ISS - Pass Details

Date: 10 February 2018
Orbit: 402 x 407 km, 51.6° (Epoch: 23 February)

Event Time Altitude Azimuth Distance (km) Brightness Sun altitude
Rises 18:40:30 0° 290° (WNW) 2,321 1.3 -13.9°
Reaches altitude 10° 18:42:40 10° 282° (WNW) 1,459 0.2 -14.2°
Maximum altitude 18:45:44 38° 213° (SSW) 636 -2.5 -14.7°
Enters shadow 18:48:13 14° 147° (SSE) 1,245 -1.6 -15.1°
